一网星座-0140星 (ONEWEB-0140 )

导读

ONEWEB-0140是英国OneWeb“一网”低轨卫星星座的组网卫星,于2020年12月18日发射,属于OneWeb一期组网任务。作为低轨通信卫星,它配备Ku/Ka波段天线,支持高速卫星互联网接入,单星通信能力约7.5Gbps,可提供最大50Mbps下载速率,服务全球偏远地区网络覆盖,助力OneWeb实现全球高速低延时互联的星座目标。

基本信息
目录编号:
47286
目录名称:
ONEWEB-0140
国际标识:
2020-100AE
轨道中心:
EARTH
卫星名称:
一网星座-0140星
卫星全名:
一网星座-0140星 (ONEWEB-0140 )
卫星状态:
在轨 (已飞行2004 天)
发射日期:
2020-12-18 UTC
国别 :
英国 (GB)
星等 :
--
轨道信息
数据来源 国际轨道数据 AOE轨道数据
星历时间 2026-06-14T06:05:00+0800
12小时前
查看轨道信息
2026-06-13T01:00:00+0800
1天前
查看轨道信息
半长轴 7591.862km 7591.85km
偏心率 0.000166 0.0001425
轨道倾角 87.895° 87.895°
近地点辐角 86.703° 85.813°
升交点赤经 351.292° 351.533°
平近点角 273.429° 312.065°
近地点 1212.464km 1212.631km
远地点 1214.986km 1214.795km
周期 109.719分钟 109.719分钟
每日圈数 13.124428 13.124457
详细信息
平衡模式:
三轴稳定
覆盖范围:
全球
运营商:
一网卫星公司
运营商所在国:
英国
制造商(研发单位):
一网卫星公司
制造商所在国:
英国
使用方式:
暂无
卫星简介
OneWeb卫星网络由648颗重约125公斤的微型卫星组成,运行在1200公里的轨道上。 每颗卫星都能够提供至少每秒8千兆位的吞吐量,以使用其高吞吐量的Ku频段有效载荷为家庭和移动平台提供互联网接入。该卫星仍在工作。
2D轨道图
3D轨道图
轨道高度分析图
轨道倾角分析图
轨道综合分析图
查看轨道综合分析图